Regional Weather Roundup
Issued by NWS Charleston, WV

Home | Current Version | Previous Version | Graphics & Text | Print | Product List | Glossary On
Versions: 1 2 3 4 5 6 7 8 9 10 11 12 13 14 15 16 17 18 19 20 21 22 23 24 25 26 27 28 29 30 31 32 33 34 35 36 37 38 39 40 41 42 43 44 45 46 47 48 49 50
000
ASUS41 KRLX 041910
RWRRLX
West Virginia Regional Weather Roundup
National Weather Service Charleston WV
300 PM EDT MON MAY 04 2015

Note: "fair" indicates few or no clouds below 12,000 feet with no
significant weather and/or obstructions to visibility.

WVZ003-042000-
Northern Panhandle of West Virginia

CITY           SKY/WX    TMP DP  RH WIND       PRES   REMARKS
WHEELING       MOSUNNY   81  48  31 SW14G20   30.17S
$$

WVZ009-042000-
Northwest West Virginia

CITY           SKY/WX    TMP DP  RH WIND       PRES   REMARKS
PARKERSBURG    MOSUNNY   81  47  30 SW13G22   30.21F
$$

WVZ006-042000-
Western West Virginia

CITY           SKY/WX    TMP DP  RH WIND       PRES   REMARKS
HUNTINGTON     MOSUNNY   80  50  34 W9G20     30.20F
$$

WVZ015-042000-
West Central West Virginia

CITY           SKY/WX    TMP DP  RH WIND       PRES   REMARKS
CHARLESTON     MOSUNNY   81  45  28 SW8G21    30.20F
$$

WVZ022-031-042000-
North Central West Virginia

CITY           SKY/WX    TMP DP  RH WIND       PRES   REMARKS
CLARKSBURG     PTSUNNY   78  46  32 W14G24    30.20F
MORGANTOWN       N/A     81  42  25 SW12G18   30.20S
$$

WVZ025-035-042-045-042000-
Southern West Virginia

CITY           SKY/WX    TMP DP  RH WIND       PRES   REMARKS
BECKLEY        SUNNY     76  43  30 VRB6      30.28F
LOGAN            N/A     79  48  34 VRB7G13   30.22F
BLUEFIELD      PTSUNNY   75  42  30 SW6G17    30.31F
LEWISBURG      MOSUNNY   78  45  30 SW9       30.27F
$$

WVZ047-042000-
Northern Mountains of West Virginia

CITY           SKY/WX    TMP DP  RH WIND       PRES   REMARKS
ELKINS         MOSUNNY   79  42  26 W10G18    30.23F
$$

WVZ052-042000-
Eastern Panhandle of West Virginia

CITY           SKY/WX    TMP DP  RH WIND       PRES   REMARKS
MARTINSBURG    MOSUNNY   84  47  27 S12       30.16F
PETERSBURG     PTSUNNY   83  35  17 CALM      30.17F
$$



USA.gov is the U.S. government's official web portal to all federal, state and local government web resources and services.